Time_in_sec,gx,gy,gz
1314892593.69261432,0.27175181,0.10883733,-0.95619318
1314892593.74469256,0.27192759,0.10902878,-0.95612139
1314892593.79246831,0.27185127,0.10893715,-0.95615353
1314892593.84444833,0.27184944,0.10900158,-0.95614671
1314892593.89261484,0.27206197,0.10901849,-0.95608433
1314892593.94451404,0.27187017,0.10882128,-0.95616136
1314892593.99254298,0.27175955,0.10898454,-0.95617421
1314892594.04561710,0.27178802,0.10914165,-0.95614820
1314892594.09250879,0.27172689,0.10898914,-0.95618297
1314892594.14553571,0.27185004,0.10904891,-0.95614115
1314892594.19360232,0.27193711,0.10946798,-0.95606850
1314892594.24563503,0.27184059,0.10956699,-0.95608460
1314892594.29362321,0.27185459,0.10964061,-0.95607218
1314892594.34551620,0.27176917,0.10941800,-0.95612197
1314892594.39259195,0.27209192,0.10933688,-0.95603945
1314892594.44160938,0.27238851,0.10926005,-0.95596378
1314892594.49262452,0.27222246,0.10939477,-0.95599567
1314892594.54462004,0.27219508,0.10921125,-0.95602445
1314892594.59258008,0.27205388,0.10909148,-0.95607831
1314892594.64161587,0.27237556,0.10946760,-0.95594372
1314892594.69263363,0.27234176,0.10958280,-0.95594015
1314892594.74463558,0.27246493,0.10973520,-0.95588757
1314892594.79263759,0.27219975,0.10985789,-0.95594903
1314892594.84161568,0.27213972,0.10974562,-0.95597901
1314892594.89259863,0.27227270,0.10982752,-0.95593174
1314892594.94465613,0.27216587,0.10969587,-0.95597728
1314892594.99259591,0.27235174,0.10976154,-0.95591680
1314892595.04554272,0.27234938,0.10958043,-0.95593825
1314892595.09245539,0.27226788,0.10974450,-0.95594265
1314892595.14545703,0.27228574,0.10984009,-0.95592658
1314892595.19244623,0.27240141,0.10987483,-0.95588964
1314892595.24445558,0.27210228,0.10992403,-0.95596917
1314892595.29249883,0.27192069,0.11011627,-0.95599872
1314892595.34553266,0.27155982,0.11009542,-0.95610369
1314892595.39257264,0.27145674,0.10990672,-0.95615467
1314892595.44545650,0.27152988,0.10981849,-0.95614404
1314892595.49252582,0.27153710,0.10976201,-0.95614847
1314892595.54448891,0.27158717,0.10969165,-0.95614233
1314892595.59253287,0.27149388,0.10986423,-0.95614901
1314892595.64450622,0.27141492,0.10983673,-0.95617458
1314892595.69251466,0.27132028,0.10952884,-0.95623676
1314892595.74513578,0.27133302,0.10961465,-0.95622331
1314892595.79252815,0.27116045,0.10969749,-0.95626276
1314892595.84521914,0.27117761,0.10983536,-0.95624207
1314892595.89261723,0.27127497,0.10958345,-0.95624336
1314892595.94150734,0.27117624,0.10965788,-0.95626283
1314892595.99247074,0.27091724,0.10965898,-0.95633611
1314892596.04152584,0.27089448,0.10958221,-0.95635136
1314892596.09261513,0.27095213,0.10971241,-0.95632010
1314892596.14161086,0.27115420,0.10980862,-0.95625178
1314892596.19262719,0.27096920,0.10975949,-0.95630986
1314892596.24535799,0.27092953,0.10974586,-0.95632266
1314892596.29251981,0.27109954,0.10993251,-0.95625304
1314892596.34459472,0.27120558,0.10976928,-0.95624173
1314892596.39267230,0.27141630,0.10985101,-0.95617255
1314892596.44459224,0.27160537,0.10985299,-0.95611863
1314892596.49251556,0.27160865,0.10991871,-0.95611015
1314892596.54496837,0.27164735,0.10977197,-0.95611601
1314892596.59304881,0.27164576,0.10968275,-0.95612671
1314892596.64458275,0.27167170,0.10959973,-0.95612885
1314892596.69261193,0.27174158,0.10999871,-0.95606318
1314892596.74464583,0.27176098,0.10981816,-0.95607842
1314892596.79361296,0.27136892,0.10974182,-0.95619854
1314892596.84458637,0.27129394,0.10985491,-0.95620683
1314892596.89262605,0.27136712,0.10975453,-0.95619759
1314892596.94459128,0.27138636,0.10989571,-0.95617591
1314892596.99361014,0.27141270,0.10976699,-0.95618322
1314892597.04463315,0.27121507,0.10978045,-0.95623775
1314892597.09360194,0.27119123,0.10970596,-0.95625306
1314892597.14505696,0.27144154,0.10961349,-0.95619265
1314892597.19258952,0.27151694,0.10931874,-0.95620498
1314892597.24460292,0.27170145,0.10891323,-0.95619885
1314892597.29359317,0.27162664,0.10914812,-0.95619332
1314892597.34553146,0.27156457,0.10897347,-0.95623087
1314892597.39259291,0.27174033,0.10904023,-0.95617332
1314892597.44552708,0.27183821,0.10896685,-0.95615386
1314892597.49246645,0.27161250,0.10906775,-0.95620650
1314892597.54461002,0.27163028,0.10926899,-0.95617848
1314892597.59362435,0.27159268,0.10915718,-0.95620193
1314892597.64549971,0.27163944,0.10921397,-0.95618216
1314892597.69262934,0.27152062,0.10930936,-0.95620501
1314892597.74458623,0.27122755,0.10917911,-0.95630306
1314892597.79258728,0.27136136,0.10934400,-0.95624626
1314892597.84458208,0.27115299,0.10934019,-0.95630580
1314892597.89249635,0.27127793,0.10925544,-0.95628005
1314892597.94460344,0.27112446,0.10906437,-0.95634538
1314892597.99261332,0.27105933,0.10890878,-0.95638157
1314892598.04460764,0.27110588,0.10858009,-0.95640575
1314892598.09248614,0.27111406,0.10836855,-0.95642743
1314892598.14450550,0.27099393,0.10872943,-0.95642052
1314892598.19149375,0.27102538,0.10880129,-0.95640343
1314892598.24150109,0.27107788,0.10901516,-0.95636420
1314892598.29252410,0.27095189,0.10898196,-0.95640368
1314892598.34550714,0.27101343,0.10893244,-0.95639189
1314892598.39260173,0.27078542,0.10910710,-0.95643656
1314892598.44152904,0.27072604,0.10886969,-0.95648042
1314892598.49246645,0.27067481,0.10891259,-0.95649004
1314892598.54449391,0.27059265,0.10896814,-0.95650696
1314892598.59248447,0.27055642,0.10894632,-0.95651969
1314892598.64451909,0.27062569,0.10893960,-0.95650086
1314892598.69361305,0.27046030,0.10833442,-0.95661637
1314892598.74153900,0.27043301,0.10847504,-0.95660815
1314892598.79249167,0.27025972,0.10828787,-0.95667833
1314892598.84452224,0.26988841,0.10805308,-0.95680969
1314892598.89250779,0.26967682,0.10837597,-0.95683283
1314892598.94452715,0.26957954,0.10841151,-0.95685621
1314892598.99453616,0.26949345,0.10828871,-0.95689437
1314892599.04449868,0.26957986,0.10831968,-0.95686652
1314892599.09353662,0.26946226,0.10804918,-0.95693023
1314892599.14297843,0.26948182,0.10846698,-0.95687745
1314892599.19259334,0.26967130,0.10848209,-0.95682236
1314892599.24613357,0.26976842,0.10840551,-0.95680366
1314892599.29258895,0.27008141,0.10843464,-0.95671206
1314892599.34452033,0.27005466,0.10869974,-0.95668953
1314892599.39364600,0.27000900,0.10881777,-0.95668899
1314892599.44560409,0.27026558,0.10876783,-0.95662222
1314892599.49262571,0.27031166,0.10895026,-0.95658844
1314892599.54449749,0.27023151,0.10908021,-0.95659628
1314892599.59356117,0.27022309,0.10927149,-0.95657682
1314892599.64562607,0.27032081,0.10925185,-0.95655146
1314892599.69257975,0.27030913,0.10932397,-0.95654652
1314892599.74562788,0.27028823,0.10930082,-0.95655507
1314892599.79364634,0.27042583,0.10947408,-0.95649636
1314892599.84460545,0.27059159,0.10941800,-0.95645590
1314892599.89361763,0.27054831,0.10931473,-0.95647995
1314892599.94493723,0.27054616,0.10903760,-0.95651219
1314892599.99361777,0.27054867,0.10918889,-0.95649423
1314892600.04451299,0.27062060,0.10905158,-0.95648954
1314892600.09248495,0.27052573,0.10912620,-0.95650787
1314892600.14461756,0.27026338,0.10911223,-0.95658362
1314892600.19364047,0.27025592,0.10912674,-0.95658407
1314892600.24550629,0.27041059,0.10911481,-0.95654173
1314892600.29264545,0.27024734,0.10901206,-0.95659958
1314892600.34550071,0.27013597,0.10908281,-0.95662296
1314892600.39363456,0.27001910,0.10924002,-0.95663802
1314892600.44459867,0.26999759,0.10930060,-0.95663717
1314892600.49259186,0.26980385,0.10911254,-0.95671330
1314892600.54453850,0.26964140,0.10903616,-0.95676781
1314892600.59361911,0.26954826,0.10901232,-0.95679676
1314892600.64179921,0.26948331,0.10897544,-0.95681926
1314892600.69353938,0.26948210,0.10901153,-0.95681549
1314892600.74459076,0.26937543,0.10911803,-0.95683339
1314892600.79249430,0.26917699,0.10911608,-0.95688945
1314892600.84459162,0.26906925,0.10926456,-0.95690281
1314892600.89263988,0.26920186,0.10911336,-0.95688277
1314892600.94557834,0.26937549,0.10939336,-0.95680193
1314892600.99266577,0.26941263,0.10961894,-0.95676566
1314892601.04584265,0.26935084,0.10953978,-0.95679212
1314892601.09518719,0.26935938,0.10969542,-0.95677188
1314892601.14450788,0.26946950,0.10954510,-0.95675810
1314892601.19293642,0.26933226,0.10938371,-0.95681521
1314892601.24555063,0.26917049,0.10941830,-0.95685677
1314892601.29247546,0.26911376,0.10939560,-0.95687532
1314892601.34486485,0.26904210,0.10940337,-0.95689459
1314892601.39260387,0.26919503,0.10913698,-0.95688200
1314892601.44553018,0.26900094,0.10890423,-0.95696309
1314892601.49348974,0.26888573,0.10897425,-0.95698750
1314892601.54462552,0.26887317,0.10888494,-0.95700120
1314892601.59345698,0.26884897,0.10888254,-0.95700827
1314892601.64452434,0.26883337,0.10902402,-0.95699654
1314892601.69350767,0.26891980,0.10920739,-0.95695135
1314892601.74581289,0.26910433,0.10909298,-0.95691253
1314892601.79362297,0.26894864,0.10907067,-0.95695884
1314892601.84548783,0.26888571,0.10915224,-0.95696722
1314892601.89258933,0.26907540,0.10883462,-0.95695008
1314892601.94592118,0.26921665,0.10902711,-0.95688844
1314892601.99351811,0.26920337,0.10886268,-0.95691090
1314892602.04154801,0.26908018,0.10903923,-0.95692544
1314892602.09349346,0.26880318,0.10884697,-0.95702518
1314892602.14156938,0.26859892,0.10878773,-0.95708926
1314892602.19353509,0.26876636,0.10856729,-0.95706728
1314892602.24452472,0.26859988,0.10842642,-0.95712999
1314892602.29353166,0.26836955,0.10849248,-0.95718711
1314892602.34546685,0.26851744,0.10847693,-0.95714740
1314892602.39360642,0.26830426,0.10856673,-0.95719700
1314892602.44549179,0.26809989,0.10857308,-0.95725354
1314892602.49361181,0.26826376,0.10842227,-0.95722472
1314892602.54559445,0.26816171,0.10843358,-0.95725204
1314892602.59360099,0.26831189,0.10851209,-0.95720105
1314892602.64468288,0.26856685,0.10860120,-0.95711944
1314892602.69361305,0.26899532,0.10841545,-0.95702017
1314892602.74457049,0.26916888,0.10828631,-0.95698599
1314892602.79361629,0.26947028,0.10827359,-0.95690261
1314892602.84560132,0.26960262,0.10834522,-0.95685722
1314892602.89251518,0.26977089,0.10835127,-0.95680911
1314892602.94459105,0.27002256,0.10833575,-0.95673987
1314892602.99260736,0.26985138,0.10820905,-0.95680251
1314892603.04517245,0.26957502,0.10827444,-0.95687301
1314892603.09265900,0.26962690,0.10836885,-0.95684770
1314892603.14563155,0.26987004,0.10839830,-0.95677582
1314892603.19246483,0.27016426,0.10825544,-0.95670896
1314892603.24549007,0.27034201,0.10812907,-0.95667304
1314892603.29260898,0.27029303,0.10826315,-0.95667172
1314892603.34550428,0.27010157,0.10819588,-0.95673340
1314892603.39364123,0.27004348,0.10828462,-0.95673976
1314892603.44552565,0.27042347,0.10790314,-0.95667552
1314892603.49361229,0.27042435,0.10767136,-0.95670139
1314892603.54553294,0.27038457,0.10774909,-0.95670388
1314892603.59359884,0.27034164,0.10772174,-0.95671909
1314892603.64162302,0.27023291,0.10784967,-0.95673540
1314892603.69380498,0.27070348,0.10804439,-0.95658039
1314892603.74551749,0.27047942,0.10808604,-0.95663906
1314892603.79255199,0.27052101,0.10815620,-0.95661937
1314892603.84157896,0.27059481,0.10809747,-0.95660514
1314892603.89259982,0.27041854,0.10818044,-0.95664560
1314892603.94458818,0.27042565,0.10783560,-0.95668252
1314892603.99255776,0.27057799,0.10796823,-0.95662449
1314892604.04155326,0.27030114,0.10801789,-0.95669715
1314892604.09407735,0.27024408,0.10772924,-0.95674581
1314892604.14453340,0.27036998,0.10798572,-0.95668132
1314892604.19345355,0.27016314,0.10755592,-0.95678817
1314892604.24471927,0.27033507,0.10762325,-0.95673204
1314892604.29247713,0.27055431,0.10771181,-0.95666009
1314892604.34453511,0.27071053,0.10772083,-0.95661488
1314892604.39351892,0.27087189,0.10741883,-0.95660316
1314892604.44449472,0.27024313,0.10691212,-0.95683773
1314892604.49276567,0.27027708,0.10689302,-0.95683028
1314892604.54452634,0.27040998,0.10685238,-0.95679727
1314892604.59352660,0.27043285,0.10686380,-0.95678953
1314892604.64452600,0.27034655,0.10691760,-0.95680791
1314892604.69331479,0.27034818,0.10622383,-0.95688472
1314892604.74449587,0.27032876,0.10614828,-0.95689859
1314892604.79245377,0.27024841,0.10621671,-0.95691369
1314892604.84165382,0.27011763,0.10621623,-0.95695067
1314892604.89248967,0.27019547,0.10631695,-0.95691750
1314892604.94447327,0.27040852,0.10659745,-0.95682612
1314892604.99252653,0.27033102,0.10672313,-0.95683400
1314892605.04450703,0.27037202,0.10651848,-0.95684522
1314892605.09311891,0.27034321,0.10659203,-0.95684517
1314892605.14458680,0.27027286,0.10673004,-0.95684966
1314892605.19361806,0.27005142,0.10668903,-0.95691676
1314892605.24562240,0.26979427,0.10659596,-0.95699966
1314892605.29259348,0.26988010,0.10648879,-0.95698739
1314892605.34451437,0.26978525,0.10649209,-0.95701377
1314892605.39257407,0.26994723,0.10653808,-0.95696297
1314892605.44560957,0.26999900,0.10649637,-0.95695301
1314892605.49305272,0.26998684,0.10644847,-0.95696177
1314892605.54459095,0.26994500,0.10625902,-0.95699463
1314892605.59357882,0.26989712,0.10628232,-0.95700554
1314892605.64458728,0.26992749,0.10620903,-0.95700512
1314892605.69361520,0.26997662,0.10639812,-0.95697025
1314892605.74450302,0.27005767,0.10661055,-0.95692374
1314892605.79249215,0.26998570,0.10655118,-0.95695066
1314892605.84460592,0.27012262,0.10658163,-0.95690863
1314892605.89248466,0.27018117,0.10649051,-0.95690224
1314892605.94452095,0.27047644,0.10704503,-0.95675695
1314892605.99348116,0.27024457,0.10713775,-0.95681209
1314892606.04459858,0.27022395,0.10700685,-0.95683256
1314892606.09273767,0.27042948,0.10702134,-0.95677287
1314892606.14460015,0.27052066,0.10714417,-0.95673335
1314892606.19270301,0.27063745,0.10740680,-0.95667087
1314892606.24552131,0.27072062,0.10737739,-0.95665064
1314892606.29285574,0.27077689,0.10726595,-0.95664722
1314892606.34463453,0.27082698,0.10750431,-0.95660628
1314892606.39257598,0.27092222,0.10749029,-0.95658088
1314892606.44560552,0.27124254,0.10713760,-0.95652968
1314892606.49448323,0.27103088,0.10731532,-0.95656975
1314892606.54160905,0.27081234,0.10730047,-0.95663331
1314892606.59247279,0.27079312,0.10728780,-0.95664017
1314892606.64461470,0.27075835,0.10709887,-0.95667118
1314892606.69261718,0.27094033,0.10709075,-0.95662057
1314892606.74162936,0.27094546,0.10739248,-0.95658529
1314892606.79262686,0.27104648,0.10743380,-0.95655203
1314892606.84460068,0.27105042,0.10744578,-0.95654957
1314892606.89250255,0.27114198,0.10752372,-0.95651486
1314892606.94151616,0.27101640,0.10743994,-0.95655986
1314892606.99261093,0.27084482,0.10725767,-0.95662891
1314892607.04456139,0.27077446,0.10713400,-0.95666269
1314892607.09255290,0.27070472,0.10699438,-0.95669805
1314892607.14455581,0.27075752,0.10685051,-0.95669919
1314892607.19295669,0.27099198,0.10696810,-0.95661966
1314892607.24455905,0.27065779,0.10685171,-0.95672727
1314892607.29329586,0.27067513,0.10696816,-0.95670935
1314892607.34144330,0.27075170,0.10699422,-0.95668477
1314892607.39268064,0.27082071,0.10704689,-0.95665935
1314892607.44548512,0.27109288,0.10738641,-0.95654420
1314892607.49257970,0.27094490,0.10746655,-0.95657713
1314892607.54452801,0.27100368,0.10740971,-0.95656686
1314892607.59250379,0.27104573,0.10739393,-0.95655672
1314892607.64152741,0.27092424,0.10731564,-0.95659992
1314892607.69387460,0.27100072,0.10774221,-0.95653031
1314892607.74456000,0.27105162,0.10780850,-0.95650841
1314892607.79351377,0.27094432,0.10771576,-0.95654926
1314892607.84128380,0.27092040,0.10763555,-0.95656507
1314892607.89259648,0.27103949,0.10749416,-0.95654723
1314892607.94550323,0.27148283,0.10844875,-0.95631372
1314892607.99319887,0.27144359,0.10841075,-0.95632917
1314892608.04549837,0.27137118,0.10845773,-0.95634440
1314892608.09415627,0.27150613,0.10849097,-0.95630232
1314892608.14459872,0.27139688,0.10845194,-0.95633776
1314892608.19361687,0.27160796,0.10906057,-0.95620861
1314892608.24459195,0.27192408,0.10882614,-0.95614547
1314892608.29266763,0.27205981,0.10850269,-0.95614362
1314892608.34526587,0.27203584,0.10842816,-0.95615890
1314892608.39356780,0.27198378,0.10842036,-0.95617459
1314892608.44540620,0.27218007,0.10918113,-0.95603216
1314892608.49286532,0.27182794,0.10926012,-0.95612332
1314892608.54526186,0.27182249,0.10929778,-0.95612056
1314892608.59292746,0.27164759,0.10913665,-0.95618867
1314892608.64553213,0.27138955,0.10917751,-0.95625728
1314892608.69260359,0.27171696,0.10970292,-0.95610416
1314892608.74446940,0.27175638,0.10955557,-0.95610985
1314892608.79259109,0.27186503,0.10954667,-0.95607998
1314892608.84464049,0.27168064,0.10961995,-0.95612400
1314892608.89261174,0.27157919,0.10973261,-0.95613989
1314892608.94461417,0.27212200,0.11008010,-0.95594560
1314892608.99249434,0.27211870,0.11011318,-0.95594273
1314892609.04497600,0.27212319,0.11018384,-0.95593331
1314892609.09262395,0.27200825,0.11008919,-0.95597693
1314892609.14462543,0.27189292,0.11010587,-0.95600781
1314892609.19369960,0.27255731,0.11049266,-0.95577397
1314892609.24500513,0.27249980,0.11053143,-0.95578589
1314892609.29259062,0.27251156,0.11067905,-0.95576545
1314892609.34464025,0.27257317,0.11046646,-0.95577248
1314892609.39267898,0.27250199,0.11038930,-0.95580169
1314892609.44464731,0.27251975,0.11018591,-0.95582009
1314892609.49362206,0.27235254,0.11012037,-0.95587530
1314892609.54553175,0.27223310,0.11015574,-0.95590525
1314892609.59261370,0.27231953,0.11018709,-0.95587702
1314892609.64171863,0.27243913,0.11055019,-0.95580101
1314892609.69263339,0.27256952,0.11026528,-0.95579675
1314892609.74472737,0.27262882,0.11047890,-0.95575517
1314892609.79251766,0.27252849,0.11044137,-0.95578812
1314892609.84509683,0.27262212,0.11071038,-0.95573029
1314892609.89259887,0.27265733,0.11114685,-0.95566959
1314892609.94159603,0.27276726,0.11106636,-0.95564757
1314892609.99260569,0.27268829,0.11098429,-0.95567965
1314892610.04463053,0.27263577,0.11094383,-0.95569933
1314892610.09346151,0.27256446,0.11075755,-0.95574127
1314892610.14456415,0.27246299,0.11098264,-0.95574409
1314892610.19351578,0.27282074,0.11082943,-0.95565981
1314892610.24452662,0.27290656,0.11084529,-0.95563347
1314892610.29251480,0.27300787,0.11077771,-0.95561237
1314892610.34147072,0.27299185,0.11095963,-0.95559584
1314892610.39433217,0.27283237,0.11099835,-0.95563689
1314892610.44253302,0.27285284,0.11080103,-0.95565394
1314892610.49421024,0.27276175,0.11080467,-0.95567952
1314892610.54458809,0.27281461,0.11068892,-0.95567785
1314892610.59258914,0.27270281,0.11065224,-0.95571400
1314892610.64458442,0.27296087,0.11083064,-0.95561966
1314892610.69249010,0.27311673,0.11063260,-0.95559808
1314892610.74457765,0.27304443,0.11087245,-0.95559094
1314892610.79246593,0.27315807,0.11083455,-0.95556286
1314892610.84459257,0.27313254,0.11093258,-0.95555878
1314892610.89252019,0.27282895,0.11075813,-0.95566574
1314892610.94244242,0.27290597,0.11079857,-0.95563906
1314892610.99215770,0.27293427,0.11079554,-0.95563133
1314892611.04161406,0.27301353,0.11056067,-0.95563589
1314892611.09249258,0.27279860,0.11054751,-0.95569879
1314892611.14462662,0.27283459,0.11048042,-0.95569627
1314892611.19245887,0.27244901,0.11009244,-0.95585103
1314892611.24452615,0.27230827,0.11011310,-0.95588875
1314892611.29349136,0.27229531,0.11005804,-0.95589879
1314892611.34509254,0.27250514,0.11015615,-0.95582769
1314892611.39256454,0.27263435,0.10989839,-0.95582051
1314892611.44461560,0.27249654,0.11004884,-0.95584250
1314892611.49345946,0.27257906,0.10988801,-0.95583748
1314892611.54447174,0.27255509,0.10977890,-0.95585685
